Location: Gro�sch�nbrunn
(49.5760°N, 11.8868°E)
Time: 17:30:43
(UTC+00:00)

N. Korean satellite - Visible Passes

Search period start: 25 November 2020 00:00
Search period end: 05 December 2020 00:00
Orbit: 452 x 504 km, 97.2° (Epoch: 24 November)

Date Brightness Start Highest point End Pass type
(mag) Time Alt. Az. Time Alt. Az. Time Alt. Az.
25 Nov 9.9 03:40:10 10° ENE 03:41:52 13° E 03:43:35 10° ESE visible
25 Nov 6.6 05:12:03 10° N 05:15:32 55° WNW 05:19:03 10° SSW visible
26 Nov 6.8 04:45:42 10° NNE 04:49:17 72° ESE 04:52:53 10° S visible
26 Nov 9.9 17:00:13 10° WSW 17:01:52 13° W 17:03:32 10° WNW visible
27 Nov 8.2 04:19:37 10° NNE 04:22:57 35° E 04:26:17 10° SSE visible
27 Nov 7.8 05:53:24 10° NNW 05:56:06 20° WNW 05:58:50 10° WSW visible
27 Nov 9.0 16:32:30 10° SSW 16:35:21 25° W 16:38:15 10° NW visible
28 Nov 9.4 03:53:55 10° NE 03:56:31 18° E 03:59:06 10° SE visible
28 Nov 7.0 05:26:38 10° N 05:29:59 37° WNW 05:33:21 10° SW visible
28 Nov 7.5 16:05:37 10° S 16:08:57 50° W 16:12:20 10° NNW visible
29 Nov 6.4 05:00:10 10° N 05:03:46 76° WNW 05:07:24 10° SSW visible
30 Nov 7.4 04:33:55 10° NNE 04:37:27 52° E 04:41:01 10° S visible
30 Nov 9.6 16:47:32 10° SW 16:49:54 17° W 16:52:17 10° NW visible
01 Dec 8.8 04:07:57 10° NE 04:11:03 26° E 04:14:10 10° SSE visible
01 Dec 7.5 05:41:16 10° N 05:44:20 27° WNW 05:47:27 10° SW visible
01 Dec 8.4 16:20:16 10° SSW 16:23:25 33° W 16:26:37 10° NNW visible
02 Dec 9.8 03:42:30 10° NE 03:44:32 14° E 03:46:34 10° SE visible
02 Dec 6.7 05:14:37 10° N 05:18:09 51° WNW 05:21:43 10° SSW visible
02 Dec 6.8 15:53:36 10° S 15:57:01 72° WSW 16:00:30 10° NNW visible
03 Dec 6.7 04:48:14 10° NNE 04:51:53 78° ESE 04:55:32 10° S visible
03 Dec 9.9 17:02:55 10° WSW 17:04:24 12° W 17:05:54 10° WNW visible
04 Dec 8.1 04:22:04 10° NNE 04:25:30 38° E 04:28:57 10° SSE visible
04 Dec 7.9 05:55:56 10° NNW 05:58:37 20° WNW 06:01:18 10° WSW visible
04 Dec 9.1 16:35:01 10° SSW 16:37:50 23° W 16:40:42 10° NW visible
